Terminal Aerodrome Forecast
Issued by NWS

Home | Current Version | Previous Version | Text Only | Print | Product List | Glossary On
Versions: 1 2 3 4 5 6 7 8 9 10 11 12 13
000
FTUS44 KEPZ 272300
TAFLRU
TAF
KLRU 272328Z 2800/2824 23007KT P6SM SCT150 BKN200
     FM280900 30005KT P6SM SCT250
     FM281800 23010KT P6SM FEW250=

USA.gov is the U.S. government's official web portal to all federal, state and local government web resources and services.